Weather History for KHRJ - April, 2013

Change the Weather History Date:

Tuesday, April 9, 2013

  Actual Average Record
Temperature  
Mean Temperature 70 °F -  
Max Temperature 84 °F 71 °F 91 °F (2001)
Min Temperature 56 °F 46 °F 31 °F (1990)
Cooling Degree Days 5    
Growing Degree Days 20 (Base 50)    
Moisture  
Dew Point 55 °F    
Average Humidity 64    
Maximum Humidity 100    
Minimum Humidity 31    
Precipitation  
Precipitation 0.00 in - - ()
Sea Level Pressure  
Sea Level Pressure 30.14 in    
Wind  
Wind Speed 6 mph (SSW)    
Max Wind Speed 13 mph    
Max Gust Speed 21 mph    
Visibility 9 miles    
Events      
Averages and records for this station are not official NWS values.
T = Trace of Precipitation, MM = Missing Value Source: NWS Daily Summary

Daily Weather History Graph

Daily Weather History Graph

Search for Another Location

Airport or City:

Trip Planner

Search our weather history database for the weather conditions in past years. The results will help you decide how hot, cold, wet, or windy it might be!

Date:

Astronomy

Apr. 09, 2013 Rise Set
Actual Time 6:50 AM EDT 7:43 PM EDT
Civil Twilight 6:24 AM EDT 8:09 PM EDT
Nautical Twilight 5:53 AM EDT 8:39 PM EDT
Astronomical Twilight 5:22 AM EDT 9:11 PM EDT
Moon 6:10 AM EDT (4/9) 7:16 PM EDT (4/9)
Length of Visible Light 13h 44m
Length of Day
12h 52m
Waning Crescent, 1% of the Moon is Illuminated
Apr 9
Waning Crescent
Apr 10
New
Apr 18
First Quarter
Apr 25
Full
May 2
Last Quarter

Hourly Weather History & Observations

Time (EDT) Temp. Heat Index Dew Point Humidity Pressure Visibility Wind Dir Wind Speed Gust Speed Precip Events Conditions
12:15 AM 63.0 °F - 54.3 °F 73% 30.13 in 10.0 mi South 8.1 mph - N/A   Clear
12:35 AM 63.0 °F - 54.7 °F 74% 30.13 in 10.0 mi South 8.1 mph - N/A   Clear
12:55 AM 62.6 °F - 54.9 °F 76% 30.14 in 10.0 mi South 6.9 mph - N/A   Clear
1:15 AM 62.1 °F - 55.4 °F 79% 30.14 in 10.0 mi South 6.9 mph - N/A   Clear
1:35 AM 61.7 °F - 55.4 °F 80% 30.14 in 10.0 mi South 6.9 mph - N/A   Clear
1:55 AM 61.0 °F - 55.4 °F 82% 30.14 in 10.0 mi South 5.8 mph - N/A   Clear
2:15 AM 60.8 °F - 55.8 °F 83% 30.13 in 10.0 mi South 3.5 mph - N/A   Clear
2:35 AM 59.9 °F - 55.6 °F 86% 30.13 in 10.0 mi SSE 3.5 mph - N/A   Clear
2:55 AM 59.5 °F - 57.2 °F 92% 30.13 in 10.0 mi South 3.5 mph - N/A   Clear
3:15 AM 59.9 °F - 57.7 °F 93% 30.13 in 10.0 mi Calm Calm - N/A   Clear
3:35 AM 60.3 °F - 57.9 °F 92% 30.13 in 10.0 mi Calm Calm - N/A   Clear
3:55 AM 59.0 °F - 57.6 °F 95% 30.14 in 10.0 mi Calm Calm - N/A   Clear
4:15 AM 59.0 °F - 57.6 °F 95% 30.14 in 10.0 mi Calm Calm - N/A   Clear
4:35 AM 58.8 °F - 57.7 °F 96% 30.14 in 10.0 mi Calm Calm - N/A   Clear
4:55 AM 58.8 °F - 57.7 °F 96% 30.15 in 10.0 mi Calm Calm - N/A   Clear
5:15 AM 58.3 °F - 57.6 °F 97% 30.15 in 10.0 mi Calm Calm - N/A   Clear
5:35 AM 58.1 °F - 57.4 °F 97% 30.15 in 7.0 mi South 3.5 mph - N/A   Clear
5:55 AM 57.2 °F - 57.2 °F 100% 30.16 in 7.0 mi Calm Calm - N/A   Clear
6:15 AM 56.8 °F - 56.8 °F 100% 30.16 in 5.0 mi South 3.5 mph - N/A   Clear
6:35 AM 56.5 °F - 56.5 °F 100% 30.17 in 5.0 mi South 3.5 mph - N/A   Clear
6:55 AM 56.5 °F - 56.5 °F 100% 30.18 in 4.0 mi Calm Calm - N/A   Clear
7:15 AM 56.7 °F - 56.7 °F 100% 30.19 in 4.0 mi Calm Calm - N/A   Clear
7:35 AM 57.6 °F - 57.6 °F 100% 30.19 in 4.0 mi Calm Calm - N/A   Clear
7:55 AM 58.3 °F - 58.3 °F 100% 30.20 in 3.0 mi South 3.5 mph - N/A   Clear
8:15 AM 58.5 °F - 58.5 °F 100% 30.20 in 5.0 mi SSW 3.5 mph - N/A   Clear
8:35 AM 60.4 °F - 60.4 °F 100% 30.20 in 7.0 mi South 4.6 mph - N/A   Clear
8:55 AM 62.8 °F - 61.3 °F 95% 30.20 in 10.0 mi SSW 5.8 mph - N/A   Clear
9:15 AM 65.1 °F - 60.3 °F 84% 30.20 in 10.0 mi SW 4.6 mph - N/A   Clear
9:35 AM 67.6 °F - 59.2 °F 74% 30.20 in 10.0 mi SW 5.8 mph - N/A   Clear
9:55 AM 69.6 °F - 58.1 °F 67% 30.20 in 10.0 mi SW 6.9 mph - N/A   Clear
10:15 AM 71.6 °F - 57.2 °F 60% 30.20 in 10.0 mi SW 3.5 mph - N/A   Clear
10:35 AM 73.8 °F - 57.0 °F 56% 30.21 in 10.0 mi SW 6.9 mph - N/A   Clear
10:55 AM 74.3 °F - 56.7 °F 54% 30.20 in 10.0 mi SSW 8.1 mph - N/A   Clear
11:15 AM 75.4 °F - 56.5 °F 52% 30.21 in 10.0 mi SW 6.9 mph - N/A   Clear
11:35 AM 76.8 °F - 55.9 °F 48% 30.20 in 10.0 mi SW 6.9 mph - N/A   Clear
11:55 AM 77.5 °F - 55.0 °F 46% 30.19 in 10.0 mi SSW 8.1 mph - N/A   Scattered Clouds
12:15 PM 79.7 °F - 54.7 °F 42% 30.19 in 10.0 mi SW 6.9 mph 16.1 mph N/A   Scattered Clouds
12:35 PM 80.1 °F 80.1 °F 54.5 °F 41% 30.18 in 10.0 mi SW 6.9 mph - N/A   Clear
12:55 PM 81.1 °F 80.7 °F 53.8 °F 39% 30.17 in 10.0 mi SW 9.2 mph - N/A   Scattered Clouds
1:15 PM 81.3 °F 80.7 °F 53.2 °F 38% 30.16 in 10.0 mi SSW 8.1 mph - N/A   Scattered Clouds
1:35 PM 83.1 °F 81.8 °F 53.1 °F 35% 30.15 in 10.0 mi SSW 12.7 mph 18.4 mph N/A   Clear
1:55 PM 83.7 °F - 52.2 °F 34% 30.15 in 10.0 mi SW 10.4 mph - N/A   Scattered Clouds
2:15 PM 84.9 °F - 51.1 °F 31% 30.14 in 10.0 mi South 11.5 mph - N/A   Mostly Cloudy
2:35 PM 84.4 °F - 50.9 °F 31% 30.13 in 10.0 mi SSW 10.4 mph - N/A   Mostly Cloudy
2:55 PM 84.9 °F - 52.5 °F 33% 30.12 in 10.0 mi South 11.5 mph 20.7 mph N/A   Scattered Clouds
3:15 PM 84.0 °F - 51.6 °F 33% 30.12 in 10.0 mi SSW 5.8 mph - N/A   Scattered Clouds
3:35 PM 84.7 °F - 52.5 °F 33% 30.11 in 10.0 mi SSW 10.4 mph - N/A   Mostly Cloudy
3:55 PM 83.5 °F - 52.7 °F 34% 30.10 in 10.0 mi SW 9.2 mph - N/A   Overcast
4:15 PM 84.0 °F - 51.8 °F 33% 30.10 in 10.0 mi SSW 11.5 mph - N/A   Overcast
4:35 PM 84.6 °F - 52.3 °F 33% 30.09 in 10.0 mi SSW 10.4 mph - N/A   Overcast
4:55 PM 84.0 °F - 52.2 °F 33% 30.09 in 10.0 mi SSW 9.2 mph - N/A   Overcast
5:15 PM 84.7 °F - 52.3 °F 33% 30.08 in 10.0 mi SW 9.2 mph - N/A   Mostly Cloudy
5:35 PM 82.9 °F - 51.4 °F 33% 30.08 in 10.0 mi SW 9.2 mph 18.4 mph N/A   Scattered Clouds
5:55 PM 83.7 °F - 51.8 °F 33% 30.09 in 10.0 mi SSW 10.4 mph 18.4 mph N/A   Scattered Clouds
6:15 PM 83.5 °F - 52.0 °F 34% 30.09 in 10.0 mi SSW 9.2 mph - N/A   Scattered Clouds
6:35 PM 82.6 °F - 51.8 °F 34% 30.09 in 10.0 mi SW 9.2 mph - N/A   Clear
6:55 PM 81.7 °F - 52.5 °F 36% 30.09 in 10.0 mi SSW 9.2 mph - N/A   Scattered Clouds
7:15 PM 80.4 °F - 52.9 °F 38% 30.09 in 10.0 mi SSW 9.2 mph - N/A   Clear
7:35 PM 78.4 °F - 53.8 °F 42% 30.09 in 10.0 mi SSW 9.2 mph - N/A   Clear
7:55 PM 76.8 °F - 54.5 °F 46% 30.10 in 10.0 mi South 5.8 mph - N/A   Clear
8:15 PM 75.6 °F - 54.9 °F 48% 30.10 in 10.0 mi South 5.8 mph - N/A   Clear
8:35 PM 73.9 °F - 55.4 °F 52% 30.10 in 10.0 mi South 5.8 mph - N/A   Clear
8:55 PM 72.1 °F - 55.9 °F 57% 30.10 in 10.0 mi South 5.8 mph - N/A   Clear
9:15 PM 72.0 °F - 55.8 °F 57% 30.11 in 10.0 mi South 5.8 mph - N/A   Clear
9:35 PM 71.6 °F - 55.9 °F 58% 30.12 in 10.0 mi South 6.9 mph - N/A   Clear
9:55 PM 70.7 °F - 56.3 °F 60% 30.12 in 10.0 mi South 5.8 mph - N/A   Clear
10:15 PM 70.3 °F - 56.3 °F 61% 30.12 in 10.0 mi South 4.6 mph - N/A   Clear
10:35 PM 69.8 °F - 56.7 °F 63% 30.12 in 10.0 mi South 5.8 mph - N/A   Clear
10:55 PM 69.8 °F - 56.7 °F 63% 30.12 in 10.0 mi South 8.1 mph - N/A   Clear
11:15 PM 69.1 °F - 56.8 °F 65% 30.11 in 10.0 mi South 8.1 mph - N/A   Clear
11:35 PM 68.4 °F - 56.8 °F 67% 30.11 in 10.0 mi South 6.9 mph - N/A   Clear
11:55 PM 67.5 °F - 56.7 °F 68% 30.11 in 10.0 mi South 6.9 mph - N/A   Clear